PSLV R/B

Satellite information

Favourite Embed

Satellite Type and Status

ROCKET BODYIN ORBIT

Key statistics

Satellite PSLV R/B at a glance.

Uptime

5133

Days in orbit

Revolutions

≈ 14.3

Per day

Orbit

SSO

Sun Synchronous Orbit

Inclination

98.5

Latest

Satellite identification and parameters

Extended collection of information and parameters for PSLV R/B.

Object identification

Identified? True

Debris? False

Object name: PSLV R/B

International designator: 2011-015D

Object number (NORAD): 37390

Object ID (CCSDS): 37390

Country: INDIA (IND)

Current information (Y/N): Y

RCS size: LARGE

Orbital parameters

Period: 100.829 minutes

Inclination: 98.4562 deg

SMA: 7176.039 km

Apoapsis: 811.379 km

Periapsis: 784.429 km

RAAN: 85.0802 deg

Eccentricy: 0.0018778

Argument of periapsis: 26.9713 deg

Mean anomaly: 37.3055 deg

Mean motion: 14.28155697 rev/day

Mean motion (dot): 0.00000215 rev/day2

B* drag term: 0.00010337 1/REarth

Two-line elements (TLE)

Creation date: May 9, 2025, 2:46 a.m.

Reference frame: TEME

Reference center: EARTH

Epoch: May 8, 2025, 5:40 p.m. UTC

TLE line 0: 0 PSLV R/B

TLE line 1: 1 37390U 11015D 25128.73664237 .00000215 00000-0 10337-3 0 9991

TLE line 2: 2 37390 98.4562 85.0802 0018778 26.9713 37.3055 14.28155697732092

Live tracking on map

Real-time ground track for satellite PSLV R/B.

In-orbit conjunctions

A list of the most updated potential collisions computed for object PSLV R/B.

Target Orbit TCA Probability of collision Miss distance Type
FENGYUN 1C DEB SSO 2025-05-04 22:56:51 0.000277567 467.0 (m) DEBRIS
NOAA 16 DEB SSO 2025-04-01 16:00:54 0.0001719534 252.0 (m) DEBRIS
NOAA 16 DEB SSO 2025-03-04 02:49:01 0.00308006 52.0 (m) DEBRIS
CZ-6A DEB LEO 2024-12-13 04:56:39 0.0003713989 719.0 (m) DEBRIS
CZ-6A DEB LEO 2024-11-08 20:53:26 0.002639378 399.0 (m) DEBRIS

Associated space launch

PSLV R/B was lifted into orbit during the mission ‘PSLV | Resourcesat-2’, on board a PSLV space rocket.

The launch took place on April 20, 2011, 4:42 a.m. from Satish Dhawan Space Centre First Launch Pad.

For more information about the launch, click the button.

Launch to space PSLV | Resourcesat-2
PSLV | Resourcesat-2

Agency: N/A

Status: Launch Successful

Launch date: April 20, 2011, 4:42 a.m. UTC

Rocket: PSLV

Launch pad: Satish Dhawan Space Centre First Launch Pad

Location: Satish Dhawan Space Centre, India

...

Latest news about this satellite

There are no fresh news available about this satellite. Check back as we update our databases every day.


Newsletter sign-up

Weekly statistics, charts and insights to help you stay on top of the space industry.